SWA943 KMCO-MDPC

Flight info

Callsign SWA943
Flight time N/A
Altitude 37000
Route DDANY3 BORRD DCT JOLTS BR1L BENIE DCT CHASO Y306 HAGIT DCT POKEG DCT KOBET DCT BEREL BEREL1W
Aircraft B738/M-SDE2E3FGHIRWXY/LB1

Departure

Time N/A
Airport Orlando International Airport (KMCO)

Arrival

Time 2026-05-03 23:38
Airport Punta Cana International Airport (MDPC)
Time Latitude Longitude Altitude Speed Heading
2026-05-03 23:09 20.20717 -70.07712 36993 ft 434 kts 149°
2026-05-03 23:09 20.18211 -70.05990 36878 ft 425 kts 150°
2026-05-03 23:09 20.15644 -70.04485 36568 ft 418 kts 158°
2026-05-03 23:10 20.12983 -70.03203 35896 ft 424 kts 159°
2026-05-03 23:10 20.10220 -70.01938 34797 ft 442 kts 159°
2026-05-03 23:10 20.07361 -70.00643 34127 ft 448 kts 159°
2026-05-03 23:10 20.04511 -69.99339 33786 ft 443 kts 159°
2026-05-03 23:11 20.01713 -69.98042 33509 ft 436 kts 158°
2026-05-03 23:11 19.98953 -69.96752 33183 ft 431 kts 159°
2026-05-03 23:11 19.96219 -69.95468 32778 ft 428 kts 159°
2026-05-03 23:11 19.93509 -69.94192 32394 ft 425 kts 159°
2026-05-03 23:12 19.91726 -69.93352 32151 ft 422 kts 158°
2026-05-03 23:12 19.89053 -69.92094 31828 ft 418 kts 158°
2026-05-03 23:12 19.86410 -69.90849 31490 ft 414 kts 158°
2026-05-03 23:12 19.83791 -69.89616 31156 ft 410 kts 159°
2026-05-03 23:13 19.81198 -69.88398 30852 ft 405 kts 158°
2026-05-03 23:13 19.78629 -69.87191 30513 ft 402 kts 158°
2026-05-03 23:13 19.76083 -69.85997 30176 ft 399 kts 158°
2026-05-03 23:13 19.73554 -69.84810 29773 ft 396 kts 158°
2026-05-03 23:14 19.71045 -69.83630 29371 ft 393 kts 158°
2026-05-03 23:14 19.68540 -69.82456 28824 ft 393 kts 158°
2026-05-03 23:14 19.66057 -69.81291 28539 ft 387 kts 157°
2026-05-03 23:14 19.63600 -69.80136 28096 ft 385 kts 158°
2026-05-03 23:15 19.61170 -69.78996 27632 ft 379 kts 157°
2026-05-03 23:15 19.58785 -69.77880 26898 ft 379 kts 158°
2026-05-03 23:15 19.56360 -69.76744 26338 ft 374 kts 157°
2026-05-03 23:15 19.53994 -69.75636 25761 ft 371 kts 157°
2026-05-03 23:16 19.51646 -69.74537 25225 ft 367 kts 157°
2026-05-03 23:16 19.49325 -69.73451 24685 ft 363 kts 157°
2026-05-03 23:16 19.47085 -69.72228 24160 ft 360 kts 147°
2026-05-03 23:16 19.45116 -69.70629 23770 ft 356 kts 138°
2026-05-03 23:17 19.43423 -69.68714 23379 ft 358 kts 130°
2026-05-03 23:17 19.41877 -69.66653 22986 ft 357 kts 129°
2026-05-03 23:17 19.40362 -69.64581 22607 ft 355 kts 129°
2026-05-03 23:17 19.38856 -69.62516 22237 ft 353 kts 129°
2026-05-03 23:18 19.37356 -69.60464 21873 ft 351 kts 129°
2026-05-03 23:18 19.35857 -69.58424 21511 ft 350 kts 130°
2026-05-03 23:18 19.34363 -69.56397 21152 ft 349 kts 130°
2026-05-03 23:18 19.32871 -69.54379 20793 ft 348 kts 130°
2026-05-03 23:19 19.31378 -69.52366 20431 ft 347 kts 131°
2026-05-03 23:19 19.29910 -69.50388 20069 ft 346 kts 130°
2026-05-03 23:19 19.28422 -69.48385 19695 ft 346 kts 131°
2026-05-03 23:19 19.26931 -69.46378 19334 ft 346 kts 131°
2026-05-03 23:20 19.25444 -69.44378 18969 ft 346 kts 131°
2026-05-03 23:20 19.23954 -69.42375 18603 ft 346 kts 131°
2026-05-03 23:20 19.22463 -69.40372 18231 ft 347 kts 131°
2026-05-03 23:20 19.20971 -69.38367 17828 ft 346 kts 131°
2026-05-03 23:21 19.19485 -69.36372 17468 ft 345 kts 131°
2026-05-03 23:21 19.18003 -69.34383 17105 ft 343 kts 130°
2026-05-03 23:21 19.16530 -69.32406 16748 ft 341 kts 130°
2026-05-03 23:21 19.15064 -69.30439 16392 ft 340 kts 130°
2026-05-03 23:22 19.12152 -69.26533 15688 ft 336 kts 130°
2026-05-03 23:22 19.10707 -69.24596 15323 ft 336 kts 129°
2026-05-03 23:22 19.09258 -69.22654 14926 ft 336 kts 129°
2026-05-03 23:23 19.07810 -69.20716 14564 ft 335 kts 129°
2026-05-03 23:23 19.06366 -69.18782 14204 ft 334 kts 129°
2026-05-03 23:23 19.04930 -69.16860 13838 ft 330 kts 129°
2026-05-03 23:23 19.03528 -69.14982 13464 ft 322 kts 128°
2026-05-03 23:24 19.02160 -69.13152 13107 ft 314 kts 128°
2026-05-03 23:24 19.00824 -69.11364 12773 ft 306 kts 128°
2026-05-03 23:24 18.99519 -69.09619 12445 ft 301 kts 128°
2026-05-03 23:24 18.98218 -69.07880 12145 ft 303 kts 129°
2026-05-03 23:25 18.96913 -69.06135 11819 ft 303 kts 128°
2026-05-03 23:25 18.95606 -69.04389 11490 ft 302 kts 128°
2026-05-03 23:25 18.94302 -69.02648 11164 ft 302 kts 128°
2026-05-03 23:25 18.93001 -69.00911 10840 ft 301 kts 129°
2026-05-03 23:26 18.91702 -68.99177 10520 ft 301 kts 129°
2026-05-03 23:26 18.90408 -68.97449 10235 ft 299 kts 129°
2026-05-03 23:26 18.89135 -68.95750 10092 ft 291 kts 128°
2026-05-03 23:26 18.87907 -68.94112 9883 ft 287 kts 128°
2026-05-03 23:27 18.86675 -68.92468 9690 ft 282 kts 128°
2026-05-03 23:27 18.85473 -68.90865 9538 ft 275 kts 128°
2026-05-03 23:27 18.84298 -68.89299 9415 ft 268 kts 128°
2026-05-03 23:27 18.83156 -68.87779 9286 ft 261 kts 128°
2026-05-03 23:28 18.82030 -68.86279 8973 ft 262 kts 128°
2026-05-03 23:28 18.80902 -68.84776 8710 ft 259 kts 128°
2026-05-03 23:28 18.79798 -68.83305 8438 ft 252 kts 128°
2026-05-03 23:28 18.78726 -68.81877 8187 ft 245 kts 128°
2026-05-03 23:29 18.77683 -68.80488 7939 ft 238 kts 128°
2026-05-03 23:29 18.76663 -68.79130 7717 ft 236 kts 128°
2026-05-03 23:29 18.75631 -68.77755 7492 ft 241 kts 128°
2026-05-03 23:29 18.74591 -68.76370 7241 ft 241 kts 128°
2026-05-03 23:30 18.73550 -68.74985 7000 ft 241 kts 128°
2026-05-03 23:30 18.72509 -68.73600 6760 ft 241 kts 128°
2026-05-03 23:30 18.71469 -68.72216 6505 ft 241 kts 128°
2026-05-03 23:30 18.70429 -68.70834 6250 ft 241 kts 128°
2026-05-03 23:31 18.69387 -68.69448 5988 ft 241 kts 128°
2026-05-03 23:31 18.68359 -68.68081 5739 ft 241 kts 128°
2026-05-03 23:31 18.67307 -68.66679 5492 ft 240 kts 128°
2026-05-03 23:31 18.66283 -68.65315 5247 ft 240 kts 128°
2026-05-03 23:32 18.65249 -68.63935 5003 ft 240 kts 128°
2026-05-03 23:32 18.64217 -68.62560 4755 ft 239 kts 129°
2026-05-03 23:32 18.63184 -68.61185 4491 ft 239 kts 128°
2026-05-03 23:32 18.62156 -68.59817 4283 ft 236 kts 128°
2026-05-03 23:33 18.61155 -68.58485 4175 ft 228 kts 129°
2026-05-03 23:33 18.59944 -68.57459 3979 ft 225 kts 156°
2026-05-03 23:33 18.58468 -68.56939 3792 ft 223 kts 162°
2026-05-03 23:33 18.56972 -68.56500 3582 ft 222 kts 163°
2026-05-03 23:34 18.55499 -68.56073 3392 ft 219 kts 163°
2026-05-03 23:34 18.54115 -68.55479 3173 ft 213 kts 140°
2026-05-03 23:34 18.53430 -68.54197 3046 ft 199 kts 98°
2026-05-03 23:34 18.53440 -68.52758 2821 ft 196 kts 89°
2026-05-03 23:35 18.53615 -68.51348 2578 ft 193 kts 83°
2026-05-03 23:35 18.53872 -68.49971 2323 ft 191 kts 78°
2026-05-03 23:35 18.54221 -68.48629 2079 ft 188 kts 76°
2026-05-03 23:35 18.54581 -68.47314 1833 ft 186 kts 75°
2026-05-03 23:36 18.54934 -68.46017 1601 ft 185 kts 75°
2026-05-03 23:36 18.55286 -68.44721 1333 ft 179 kts 75°
2026-05-03 23:36 18.55615 -68.43510 1116 ft 164 kts 76°
2026-05-03 23:36 18.55913 -68.42411 905 ft 147 kts 74°
2026-05-03 23:37 18.56177 -68.41439 725 ft 135 kts 75°
2026-05-03 23:37 18.56441 -68.40486 625 ft 136 kts 76°
2026-05-03 23:37 18.56697 -68.39514 436 ft 141 kts 73°
2026-05-03 23:37 18.56973 -68.38511 168 ft 143 kts 76°
2026-05-03 23:38 18.57239 -68.37552 48 ft 124 kts 72°
2026-05-03 23:38 18.57446 -68.36808 48 ft 85 kts 74°
2026-05-03 23:38 18.57574 -68.36341 46 ft 34 kts 73°
2026-05-03 23:38 18.57603 -68.36106 50 ft 31 kts 93°
2026-05-03 23:39 18.57572 -68.35944 50 ft 11 kts 110°
2026-05-03 23:39 18.57527 -68.35877 49 ft 11 kts 139°
2026-05-03 23:39 18.57456 -68.35842 49 ft 12 kts 170°
2026-05-03 23:39 18.57366 -68.35833 50 ft 14 kts 177°
2026-05-03 23:40 18.57266 -68.35829 50 ft 15 kts 178°
2026-05-03 23:40 18.57155 -68.35823 50 ft 17 kts 176°
2026-05-03 23:40 18.57035 -68.35816 51 ft 18 kts 178°
2026-05-03 23:40 18.56906 -68.35808 50 ft 20 kts 176°
2026-05-03 23:41 18.56763 -68.35797 46 ft 21 kts 174°
2026-05-03 23:41 18.56618 -68.35781 51 ft 21 kts 175°
2026-05-03 23:41 18.56524 -68.35805 51 ft 14 kts 241°
2026-05-03 23:41 18.56509 -68.35900 51 ft 13 kts 265°
2026-05-03 23:42 18.56501 -68.35994 51 ft 13 kts 262°
2026-05-03 23:42 18.56492 -68.36085 51 ft 12 kts 266°
2026-05-03 23:42 18.56483 -68.36174 50 ft 12 kts 262°
2026-05-03 23:42 18.56477 -68.36261 50 ft 12 kts 267°
2026-05-03 23:43 18.56471 -68.36341 50 ft 8 kts 264°
2026-05-03 23:43 18.56468 -68.36391 50 ft 4 kts 267°
2026-05-03 23:43 18.56447 -68.36401 50 ft 4 kts 185°
2026-05-03 23:43 18.56422 -68.36400 50 ft 4 kts 175°
2026-05-03 23:44 18.56399 -68.36397 50 ft 1 kts 173°
2026-05-03 23:44 18.56391 -68.36396 50 ft 1 kts 171°
2026-05-03 23:44 18.56384 -68.36395 50 ft 1 kts 174°
2026-05-03 23:44 18.56383 -68.36395 50 ft 0 kts 174°